Voltar ao catálogo

STARLINK-5745

AtivoComunicaçõesVLEO
NORAD 55575·PAYLOAD·🇺🇸 United States

Lançado Feb 12, 2023 de Cape Canaveral Space Force Station

Loading…

Próximas Passagens (próximas 24 horas)

TLE

AtualizadoSource: CelesTrak SupGP

Época: Sep 14, 2026, 21:39 UTC

1 55575C 23020G   26257.90256944  .00011310  00000+0  40963-3 0  2572
2 55575  43.0044  20.1145 0001931 284.7267 289.1513 15.27572746    13

Acompanhe STARLINK-5745 em tempo real com AllMySat

Download on the App Store